Weather Roundup
Issued by NWS Chicago, IL

Home | Current Version | Previous Version | Graphics & Text | Print | Product List | Glossary On
Versions: 1 2 3 4 5 6 7 8 9 10 11 12 13 14 15 16 17 18 19 20 21 22 23 24 25 26 27 28 29 30 31 32 33 34 35 36 37 38 39 40 41 42 43 44 45 46 47 48 49 50
532
NZUS59 KLOT 200708
HRRLOT

CHICAGO AREA WEATHER ROUNDUP
NATIONAL WEATHER SERVICE CHICAGO/ROMEOVILLE IL
100 AM CST FRI JAN 20 2017

NOTE: "FAIR" INDICATES FEW OR NO CLOUDS BELOW 12,000 FEET WITH NO
SIGNIFICANT WEATHER AND/OR OBSTRUCTIONS TO VISIBILITY.

* THESE STATIONS ARE NOT UNDER NWS QUALITY CONTROL. THEY ALSO MAY NOT
  REPORT WEATHER SUCH AS PRECIPITATION OR FOG.

ILZ005-006-012>014-019>023-200800-
NORTHEAST ILLINOIS

CITY           SKY/WX    TMP DP  RH WIND       PRES   REMARKS
OHARE          LGT RAIN  38  37  97 NE7       29.67S FOG
MIDWAY         LGT RAIN  37  37 100 E8G23     29.66F FOG
AURORA         CLOUDY    40  38  93 E9        29.64F FOG
LANSING*       RAIN      38  38 100 NE6       29.66F
JOLIET*        DRIZZLE   40  39  98 NE7       29.65F
WAUKEGAN       LGT RAIN  37  37 100 NE9       29.68F FOG
DUPAGE AIRPORT LGT RAIN  39  36  89 E10       29.64F FOG
WHEELING       LGT RAIN  37  36  96 E7        29.69F FOG
KANKAKEE*      LGT RAIN  40  39  97 E9        29.63F
MORRIS*        DRIZZLE   38  37  97 E9        29.62F
LEWIS AIRPORT* LGT RAIN  38  38 100 E8        29.65F
NORTHERLY ISL    N/A     35  34  96 NE7         N/A  WCI  29
$$

WIZ051-052-058>065-066-070>072-200800-
SOUTHEAST WISCONSIN

CITY           SKY/WX    TMP DP  RH WIND       PRES   REMARKS
MILWAUKEE      LGT RAIN  38  36  92 E8        29.72F VSB 1
KENOSHA*       RAIN      37  36  96 NE12      29.70F VSB 1
RACINE*        LGT RAIN  38  36  92 E10       29.73F FOG
WAUKESHA       LGT RAIN  34  34 100 NE7       29.72F WCI  28
WEST BEND      DRZL/FOG  34  34 100 NE5       29.73F VSB 1/2 WCI  30
$$

INZ001>003-010>013-019-020-200800-
NORTHWEST INDIANA

CITY           SKY/WX    TMP DP  RH WIND       PRES   REMARKS
GARY*          RAIN      38  38  99 NE6       29.67F
MICHIGAN CITY* NOT AVBL
RENSSELAER*    NOT AVBL
VALPARAISO     LGT RAIN  39  39 100 E12       29.66F FOG
$$

LMZ740>746-200800-
SOUTHERN LAKE MICHIGAN

STATION/POSITION TIME  SKY/WX   TEMP WIND        PRES    VSBY
                                AIR  DIR/SP/G
                 (UTC)          (F)  (DEG/KT/KT) (MB)    (MI)
HARRISON CRIB    0640            37   90/ 11/ 12   N/A
BURNHAM HARBOR   0700            35   40/  7/  8   N/A
CALUMET HARBOR   0642            35   40/  8/ 11 1004.4F
BURNS HARBOR     0640            35   70/  8/  9 1005.4F
MICHIGAN CITY    0640            37   50/  8/  9   N/A
$$

ABBREVIATIONS USED IN REMARKS
   TC - TEMPERATURE IN CELSIUS
  WCI - WIND CHILL INDEX
   HX - HEAT INDEX
  VSB - VISIBILITY
$$




USA.gov is the U.S. government's official web portal to all federal, state and local government web resources and services.